Time,TemperatureF,DewpointF,PressureIn,WindDirection,WindDirectionDegrees,WindSpeedMPH,WindSpeedGustMPH,Humidity,HourlyPrecipIn,Conditions,Clouds,dailyrainin,SolarRadiationWatts/m^2,SoftwareType,DateUTC
2014-10-22 00:03:00,37.0,35.0,-100.00,SSE,159,6.0,15.0,94,0.00,,,0.00,0.000000,,2014-10-22 05:03:00,
2014-10-22 00:23:00,37.0,35.0,-100.00,SSE,156,7.0,16.0,93,0.00,,,0.00,0.000000,,2014-10-22 05:23:00,
2014-10-22 00:33:00,37.0,35.0,-100.00,SSE,156,7.0,16.0,93,0.00,,,0.00,0.000000,,2014-10-22 05:33:00,
2014-10-22 00:43:00,37.0,35.0,-100.00,SSE,156,7.0,16.0,93,0.00,,,0.00,0.000000,,2014-10-22 05:43:00,
2014-10-22 00:52:00,37.0,35.0,-100.00,SSE,156,7.0,16.0,93,0.00,,,0.00,0.000000,,2014-10-22 05:52:00,
2014-10-22 01:02:00,37.0,35.0,-100.00,SSE,156,7.0,16.0,93,0.00,,,0.00,0.000000,,2014-10-22 06:02:00,
2014-10-22 01:22:00,38.0,36.0,-100.00,SSE,159,6.0,12.0,93,0.00,,,0.00,0.000000,,2014-10-22 06:22:00,
2014-10-22 01:33:00,38.0,36.0,-100.00,SSE,159,6.0,12.0,93,0.00,,,0.00,0.000000,,2014-10-22 06:33:00,
2014-10-22 01:42:00,38.0,36.0,-100.00,SSE,159,6.0,12.0,93,0.00,,,0.00,0.000000,,2014-10-22 06:42:00,
2014-10-22 01:53:00,38.0,36.0,-100.00,SSE,159,6.0,12.0,93,0.00,,,0.00,0.000000,,2014-10-22 06:53:00,
2014-10-22 02:02:00,38.0,36.0,-100.00,SSE,159,6.0,12.0,93,0.00,,,0.00,0.000000,,2014-10-22 07:02:00,
2014-10-22 02:22:00,38.0,36.0,-100.00,South,169,6.0,16.0,94,0.00,,,0.00,0.000000,,2014-10-22 07:22:00,
2014-10-22 02:32:00,38.0,36.0,-100.00,South,169,6.0,16.0,94,0.00,,,0.00,0.000000,,2014-10-22 07:32:00,
2014-10-22 02:42:00,38.0,36.0,-100.00,South,169,6.0,16.0,94,0.00,,,0.00,0.000000,,2014-10-22 07:42:00,
2014-10-22 02:52:00,38.0,36.0,-100.00,South,169,6.0,16.0,94,0.00,,,0.00,0.000000,,2014-10-22 07:52:00,
2014-10-22 03:02:00,38.0,36.0,-100.00,South,169,6.0,16.0,94,0.00,,,0.00,0.000000,,2014-10-22 08:02:00,
2014-10-22 03:22:00,38.0,37.0,-100.00,South,175,6.0,12.0,95,0.00,,,0.00,0.000000,,2014-10-22 08:22:00,
2014-10-22 03:32:00,38.0,37.0,-100.00,South,175,6.0,12.0,95,0.00,,,0.00,0.000000,,2014-10-22 08:32:00,
2014-10-22 03:43:00,38.0,37.0,-100.00,South,175,6.0,12.0,95,0.00,,,0.00,0.000000,,2014-10-22 08:43:00,
2014-10-22 03:52:00,38.0,37.0,-100.00,South,175,6.0,12.0,95,0.00,,,0.00,0.000000,,2014-10-22 08:52:00,
2014-10-22 04:02:00,38.0,37.0,-100.00,South,175,6.0,12.0,95,0.00,,,0.00,0.000000,,2014-10-22 09:02:00,
2014-10-22 04:22:00,37.0,36.0,-100.00,South,170,5.0,13.0,95,0.00,,,0.00,0.000000,,2014-10-22 09:22:00,
2014-10-22 04:34:00,37.0,36.0,-100.00,South,170,5.0,13.0,95,0.00,,,0.00,0.000000,,2014-10-22 09:34:00,
2014-10-22 04:44:00,37.0,36.0,-100.00,South,170,5.0,13.0,95,0.00,,,0.00,0.000000,,2014-10-22 09:44:00,
2014-10-22 04:54:00,37.0,36.0,-100.00,South,170,5.0,13.0,95,0.00,,,0.00,0.000000,,2014-10-22 09:54:00,
2014-10-22 05:03:00,37.0,36.0,-100.00,South,170,5.0,13.0,95,0.00,,,0.00,0.000000,,2014-10-22 10:03:00,
2014-10-22 05:24:00,36.0,34.0,-100.00,SSE,165,6.0,11.0,94,0.00,,,0.00,0.000000,,2014-10-22 10:24:00,
2014-10-22 05:34:00,36.0,34.0,-100.00,SSE,165,6.0,11.0,94,0.00,,,0.00,0.000000,,2014-10-22 10:34:00,
2014-10-22 05:42:00,36.0,34.0,-100.00,SSE,165,6.0,11.0,94,0.00,,,0.00,0.000000,,2014-10-22 10:42:00,
2014-10-22 05:53:00,36.0,34.0,-100.00,SSE,165,6.0,11.0,94,0.00,,,0.00,0.000000,,2014-10-22 10:53:00,
2014-10-22 06:03:00,36.0,34.0,-100.00,SSE,165,6.0,11.0,94,0.00,,,0.00,0.000000,,2014-10-22 11:03:00,
2014-10-22 06:22:00,36.0,34.0,-100.00,South,173,5.0,10.0,94,0.00,,,0.00,0.000000,,2014-10-22 11:22:00,
2014-10-22 06:33:00,36.0,34.0,-100.00,South,173,5.0,10.0,94,0.00,,,0.00,0.000000,,2014-10-22 11:33:00,
2014-10-22 06:43:00,36.0,34.0,-100.00,South,173,5.0,10.0,94,0.00,,,0.00,0.000000,,2014-10-22 11:43:00,
2014-10-22 06:52:00,36.0,34.0,-100.00,South,173,5.0,10.0,94,0.00,,,0.00,0.000000,,2014-10-22 11:52:00,
2014-10-22 07:02:00,36.0,34.0,-100.00,South,173,5.0,10.0,94,0.00,,,0.00,0.000000,,2014-10-22 12:02:00,
2014-10-22 07:22:00,35.0,33.0,-100.00,South,174,5.0,10.0,92,0.00,,,0.00,0.000000,,2014-10-22 12:22:00,
2014-10-22 07:33:00,35.0,33.0,-100.00,South,174,5.0,10.0,92,0.00,,,0.00,0.000000,,2014-10-22 12:33:00,
2014-10-22 07:43:00,35.0,33.0,-100.00,South,174,5.0,10.0,92,0.00,,,0.00,0.000000,,2014-10-22 12:43:00,
2014-10-22 07:52:00,35.0,33.0,-100.00,South,174,5.0,10.0,92,0.00,,,0.00,0.000000,,2014-10-22 12:52:00,
2014-10-22 08:02:00,35.0,33.0,-100.00,South,174,5.0,10.0,92,0.00,,,0.00,0.000000,,2014-10-22 13:02:00,
2014-10-22 08:22:00,36.0,34.0,-100.00,South,175,6.0,12.0,92,0.00,,,0.00,6.000000,,2014-10-22 13:22:00,